When you browse on this site, cookies collect data to enhance your experience and personalize the content and advertising you see.
Visit our Privacy Policy to learn more. By continuing to use the site, you agree to this use of cookies and data.

Météo par heure à Lukyaniki

Ce jour, 3 Août, Lundi

Heure Température Précipitation Vent Pression Humidité
00:00 +10°C° 0 mm 0 m/s 741 mmHg 89%
01:00 +10°C° 0 mm 0 m/s 741 mmHg 90%
02:00 +11°C° 0 mm 1 m/s 742 mmHg 90%
03:00 +11°C° 0 mm 1 m/s 742 mmHg 90%
04:00 +11°C° 0 mm 1 m/s 742 mmHg 90%
05:00 +11°C° 0 mm 1 m/s 742 mmHg 90%
06:00 +13°C° 0 mm 1 m/s 742 mmHg 85%
07:00 +15°C° 0 mm 2 m/s 742 mmHg 79%
08:00 +17°C° 0 mm 2 m/s 742 mmHg 73%
09:00 +18°C° 0 mm 3 m/s 742 mmHg 69%
10:00 +19°C° 0 mm 3 m/s 742 mmHg 66%
11:00 +21°C° 0 mm 3 m/s 742 mmHg 62%
12:00 +21°C° 0 mm 3 m/s 742 mmHg 61%
13:00 +22°C° 0 mm 3 m/s 742 mmHg 61%
14:00 +22°C° 0 mm 4 m/s 742 mmHg 60%
15:00 +22°C° 0 mm 3 m/s 742 mmHg 63%
16:00 +21°C° 0 mm 3 m/s 742 mmHg 66%
17:00 +21°C° 0 mm 3 m/s 742 mmHg 70%
18:00 +20°C° 0 mm 3 m/s 742 mmHg 77%
19:00 +18°C° 0 mm 2 m/s 742 mmHg 84%
20:00 +17°C° 0 mm 2 m/s 742 mmHg 91%
21:00 +16°C° 0 mm 2 m/s 742 mmHg 93%
22:00 +15°C° 0 mm 2 m/s 742 mmHg 94%
23:00 +15°C° 0 mm 2 m/s 742 mmHg 96%

Demain, 4 Août, Mardi

Heure Température Précipitation Vent Pression Humidité
00:00 +14°C° 0 mm 2 m/s 742 mmHg 96%
01:00 +14°C° 0 mm 2 m/s 743 mmHg 96%
02:00 +14°C° 0 mm 2 m/s 743 mmHg 96%
03:00 +13°C° 0 mm 2 m/s 743 mmHg 96%
04:00 +13°C° 0 mm 2 m/s 743 mmHg 96%
05:00 +13°C° 0 mm 2 m/s 743 mmHg 95%
06:00 +15°C° 0 mm 2 m/s 743 mmHg 89%
07:00 +17°C° 0 mm 3 m/s 743 mmHg 83%
08:00 +18°C° 0 mm 3 m/s 743 mmHg 77%
09:00 +20°C° 0 mm 3 m/s 743 mmHg 72%
10:00 +21°C° 0 mm 4 m/s 743 mmHg 67%
11:00 +22°C° 0 mm 4 m/s 744 mmHg 62%
12:00 +23°C° 0 mm 4 m/s 743 mmHg 61%
13:00 +23°C° 0 mm 4 m/s 743 mmHg 60%
14:00 +25°C° 0 mm 4 m/s 743 mmHg 58%
15:00 +25°C° 0 mm 4 m/s 743 mmHg 62%
16:00 +23°C° 0 mm 4 m/s 743 mmHg 65%
17:00 +24°C° 0 mm 3 m/s 743 mmHg 68%
18:00 +21°C° 0 mm 3 m/s 743 mmHg 75%
19:00 +20°C° 0 mm 3 m/s 743 mmHg 82%
20:00 +18°C° 0 mm 2 m/s 743 mmHg 89%
21:00 +17°C° 0 mm 2 m/s 743 mmHg 90%
22:00 +17°C° 0 mm 3 m/s 743 mmHg 90%
23:00 +16°C° 0 mm 3 m/s 743 mmHg 91%

Après-demain, 5 Août, Mercredi

Heure Température Précipitation Vent Pression Humidité
00:00 +16°C° 0 mm 3 m/s 743 mmHg 91%
01:00 +16°C° 0 mm 3 m/s 744 mmHg 91%
02:00 +16°C° 0 mm 3 m/s 744 mmHg 92%
03:00 +16°C° 0 mm 3 m/s 744 mmHg 91%
04:00 +16°C° 0 mm 3 m/s 744 mmHg 90%
05:00 +16°C° 0 mm 3 m/s 744 mmHg 90%
06:00 +17°C° 0 mm 3 m/s 744 mmHg 85%
07:00 +18°C° 0 mm 3 m/s 744 mmHg 80%
08:00 +20°C° 0 mm 3 m/s 745 mmHg 75%
09:00 +21°C° 0 mm 3 m/s 745 mmHg 71%
10:00 +23°C° 0 mm 4 m/s 745 mmHg 67%
11:00 +25°C° 0 mm 4 m/s 745 mmHg 63%
12:00 +26°C° 0 mm 4 m/s 745 mmHg 61%
13:00 +27°C° 0 mm 4 m/s 745 mmHg 60%
14:00 +27°C° 0 mm 4 m/s 746 mmHg 58%
15:00 +27°C° 0 mm 3 m/s 746 mmHg 61%
16:00 +26°C° 0 mm 3 m/s 746 mmHg 65%
17:00 +26°C° 0 mm 2 m/s 746 mmHg 68%
18:00 +24°C° 0 mm 2 m/s 746 mmHg 74%
19:00 +23°C° 0 mm 2 m/s 746 mmHg 81%
20:00 +21°C° 0 mm 1 m/s 746 mmHg 87%
21:00 +20°C° 0 mm 1 m/s 746 mmHg 88%
22:00 +20°C° 0 mm 1 m/s 746 mmHg 90%
23:00 +19°C° 0 mm 1 m/s 746 mmHg 91%

6 Août, Jeudi

Heure Température Précipitation Vent Pression Humidité
00:00 +19°C° 0 mm 1 m/s 746 mmHg 91%
01:00 +18°C° 0 mm 1 m/s 746 mmHg 92%
02:00 +18°C° 0 mm 1 m/s 746 mmHg 93%
03:00 +18°C° 0 mm 1 m/s 747 mmHg 92%
04:00 +18°C° 0 mm 1 m/s 747 mmHg 92%
05:00 +18°C° 0 mm 1 m/s 747 mmHg 92%
06:00 +20°C° 0 mm 1 m/s 747 mmHg 86%
07:00 +20°C° 0 mm 2 m/s 747 mmHg 81%
08:00 +23°C° 0 mm 2 m/s 747 mmHg 75%
09:00 +24°C° 0 mm 1 m/s 747 mmHg 71%
10:00 +26°C° 0 mm 1 m/s 748 mmHg 66%
11:00 +27°C° 0 mm 1 m/s 748 mmHg 62%
12:00 +27°C° 0.6 mm 1 m/s 748 mmHg 66%
13:00 +26°C° 0.6 mm 1 m/s 748 mmHg 70%
14:00 +26°C° 0.6 mm 1 m/s 747 mmHg 74%
15:00 +25°C° 0.8 mm 1 m/s 747 mmHg 79%
16:00 +25°C° 0.8 mm 1 m/s 747 mmHg 84%
17:00 +24°C° 0.8 mm 1 m/s 747 mmHg 90%
18:00 +23°C° 0.2 mm 1 m/s 747 mmHg 92%
19:00 +22°C° 0.2 mm 1 m/s 748 mmHg 94%
20:00 +21°C° 0.2 mm 1 m/s 748 mmHg 96%
21:00 +19°C° 0.3 mm 2 m/s 748 mmHg 96%
22:00 +19°C° 0.3 mm 2 m/s 748 mmHg 97%
23:00 +18°C° 0.3 mm 2 m/s 748 mmHg 98%

7 Août, Vendredi

Heure Température Précipitation Vent Pression Humidité
00:00 +18°C° 0.8 mm 2 m/s 748 mmHg 98%
01:00 +18°C° 0.8 mm 2 m/s 748 mmHg 98%
02:00 +18°C° 0.8 mm 2 m/s 748 mmHg 98%
03:00 +17°C° 0.3 mm 2 m/s 748 mmHg 98%
04:00 +17°C° 0.3 mm 3 m/s 748 mmHg 97%
05:00 +17°C° 0.3 mm 3 m/s 748 mmHg 97%
06:00 +18°C° 0 mm 3 m/s 749 mmHg 93%
07:00 +18°C° 0 mm 3 m/s 749 mmHg 89%
08:00 +19°C° 0 mm 3 m/s 749 mmHg 85%
09:00 +21°C° 0 mm 3 m/s 749 mmHg 76%
10:00 +22°C° 0 mm 3 m/s 749 mmHg 67%
11:00 +25°C° 0 mm 3 m/s 749 mmHg 59%
12:00 +25°C° 0 mm 3 m/s 749 mmHg 57%
13:00 +25°C° 0 mm 3 m/s 749 mmHg 55%
14:00 +26°C° 0 mm 3 m/s 748 mmHg 53%
15:00 +25°C° 0 mm 3 m/s 748 mmHg 57%
16:00 +25°C° 0 mm 3 m/s 748 mmHg 61%
17:00 +24°C° 0 mm 2 m/s 748 mmHg 65%
18:00 +21°C° 0 mm 2 m/s 748 mmHg 70%
19:00 +20°C° 0 mm 2 m/s 748 mmHg 75%
20:00 +18°C° 0 mm 2 m/s 748 mmHg 80%
21:00 +17°C° 0 mm 2 m/s 748 mmHg 82%
22:00 +17°C° 0 mm 2 m/s 748 mmHg 84%
23:00 +16°C° 0 mm 2 m/s 748 mmHg 86%

8 Août, Samedi

Heure Température Précipitation Vent Pression Humidité
00:00 +16°C° 0 mm 2 m/s 748 mmHg 88%
01:00 +15°C° 0 mm 2 m/s 748 mmHg 89%
02:00 +15°C° 0 mm 2 m/s 748 mmHg 90%
03:00 +14°C° 0 mm 2 m/s 748 mmHg 90%
04:00 +14°C° 0 mm 2 m/s 748 mmHg 91%
05:00 +14°C° 0 mm 2 m/s 748 mmHg 91%
06:00 +14°C° 0 mm 3 m/s 748 mmHg 85%
07:00 +17°C° 0 mm 3 m/s 748 mmHg 79%
08:00 +19°C° 0 mm 3 m/s 748 mmHg 73%
09:00 +20°C° 0 mm 3 m/s 748 mmHg 68%
10:00 +21°C° 0 mm 4 m/s 748 mmHg 62%
11:00 +23°C° 0 mm 4 m/s 748 mmHg 57%
12:00 +23°C° 0 mm 4 m/s 747 mmHg 56%
13:00 +23°C° 0 mm 4 m/s 747 mmHg 55%
14:00 +25°C° 0 mm 4 m/s 747 mmHg 54%
15:00 +23°C° 0 mm 4 m/s 746 mmHg 58%
16:00 +24°C° 0 mm 3 m/s 746 mmHg 61%
17:00 +22°C° 0 mm 3 m/s 746 mmHg 64%
18:00 +21°C° 0 mm 3 m/s 746 mmHg 70%
19:00 +19°C° 0 mm 3 m/s 746 mmHg 77%
20:00 +17°C° 0 mm 2 m/s 746 mmHg 83%
21:00 +16°C° 0 mm 2 m/s 746 mmHg 85%
22:00 +16°C° 0 mm 2 m/s 746 mmHg 88%
23:00 +15°C° 0 mm 2 m/s 746 mmHg 90%
Voir plus